Location: Newark
(49.4794°N, 21.2167°E)
Time: 12:15:24
(UTC+00:00)

Envisat - Visible Passes

Search period start: 19 October 2019 00:00
Search period end: 29 October 2019 00:00
Orbit: 764 x 766 km, 98.1° (Epoch: 19 October)

Date Brightness Start Highest point End Pass type
(mag) Time Alt. Az. Time Alt. Az. Time Alt. Az.
19 Oct 3.0 16:29:22 10° SSE 16:34:27 89° ENE 16:39:34 10° NNW visible
19 Oct 6.1 18:11:35 10° WSW 18:14:12 14° W 18:16:50 10° NW visible
20 Oct 5.1 17:32:39 10° SSW 17:37:00 28° W 17:41:22 10° NW visible
21 Oct 6.6 03:59:48 10° ENE 04:01:15 11° E 04:02:44 10° E visible
21 Oct 3.7 16:55:01 10° S 17:00:00 56° W 17:05:01 10° NNW visible
22 Oct 3.0 16:18:08 10° SSE 16:23:11 74° ENE 16:28:17 10° N visible
22 Oct 5.8 17:59:28 10° SW 18:02:47 17° W 18:06:07 10° NW visible
23 Oct 6.0 04:23:35 10° NE 04:27:09 19° E 04:30:41 10° SE visible
23 Oct 4.7 17:21:02 10° SSW 17:25:38 34° W 17:30:17 10° NNW visible
24 Oct 3.4 16:43:38 10° S 16:48:42 69° WSW 16:53:48 10° NNW visible
24 Oct 6.4 18:28:27 10° W 18:28:41 10° W 18:28:54 10° W visible
25 Oct 3.0 16:06:58 10° SSE 16:11:57 60° ENE 16:16:58 10° N visible
25 Oct 5.5 17:47:34 10° SW 17:51:23 21° W 17:55:14 10° NW visible
26 Oct 6.2 04:12:47 10° NE 04:15:44 15° E 04:18:40 10° ESE visible
26 Oct 4.3 17:09:30 10° SSW 17:14:18 42° W 17:19:09 10° NNW visible
27 Oct 3.1 16:32:20 10° SSE 16:37:25 85° WSW 16:42:33 10° NNW visible
27 Oct 6.1 18:14:59 10° WSW 18:17:14 13° W 18:19:30 10° WNW visible
28 Oct 5.7 04:37:23 10° NE 04:41:33 25° E 04:45:41 10° SSE visible
28 Oct 3.2 15:55:51 10° SE 16:00:43 49° ENE 16:05:38 10° N visible
28 Oct 5.2 17:35:48 10° SSW 17:40:01 26° W 17:44:15 10° NW visible
